Waarnemingen

Advertentie
Mijn weer
Hoburg A, Zweden (2679): temperatuur & dauwpunt: 15.05.2018 18:00:00 - 21.05.2018 18:00:00 (CEST)Hoburg A, Zweden (2679): windsnelheid & windstoten: 15.05.2018 18:00:00 - 21.05.2018 18:00:00 (CEST)Hoburg A, Zweden (2679): windrichting: 15.05.2018 18:00:00 - 21.05.2018 18:00:00 (CEST)Hoburg A, Zweden (2679): luchtdruk: 15.05.2018 18:00:00 - 21.05.2018 18:00:00 (CEST)Hoburg A, Zweden (2679): zicht: 15.05.2018 18:00:00 - 21.05.2018 18:00:00 (CEST)Hoburg A, Zweden (2679): neerslag: 15.05.2018 18:00:00 - 21.05.2018 18:00:00 (CEST)
Datum & Tijd tt [°C] td [°C] ff [km/u] ff [kn] fx [km/u] fx [kn] dd ppp [hPa] vv [km] rr [mm]
21.05.2018 18:00:00 19,2 2,5 4 2 13 7 Z 1025,6 49 0,0
21.05.2018 17:00:00 20,1 7,1 4 2 15 8 OZO 1026,1 49 0,0
21.05.2018 16:00:00 19,9 2,3 10 6 16 9 ZZO 1026,7 48 0,0
21.05.2018 15:00:00 18,5 4,6 11 6 16 9 ZZO 1027,4 45 0,0
21.05.2018 14:00:00 18,3 4,5 10 6 16 9 ZZO 1028,0 43 0,0
21.05.2018 13:00:00 18,1 2,8 10 5 16 9 ZZO 1028,6 41 0,0
21.05.2018 12:00:00 17,7 2,8 11 6 16 9 ZO 1029,2 43 0,0
21.05.2018 11:00:00 16,6 5,8 12 6 16 8 ZO 1029,6 42 0,0
21.05.2018 10:00:00 15,7 6,7 8 4 12 6 ZZO 1029,6 50 0,0
21.05.2018 09:00:00 14,4 7,9 10 5 12 6 ZO 1029,7 50 0,0
21.05.2018 08:00:00 13,9 10,1 8 4 16 9 ZO 1029,7 50 0,0
21.05.2018 07:00:00 13,5 6,1 5 3 20 11 O 1029,7 50 0,0
21.05.2018 06:00:00 13,1 5,5 6 3 20 11 NO 1029,4 50 0,0
21.05.2018 05:00:00 13,0 3,9 13 7 23 12 N 1029,1 50 0,0
21.05.2018 04:00:00 12,4 5,1 17 9 23 12 NNW 1029,0 50 0,0
21.05.2018 03:00:00 12,3 4,5 16 9 22 12 NNW 1028,9 50 0,0
21.05.2018 02:00:00 11,1 6,6 17 9 22 12 NW 1028,8 50 0,0
21.05.2018 01:00:00 11,8 6,5 13 7 19 10 NW 1028,8 50 0,0
21.05.2018 00:00:00 12,0 4,9 12 6 18 10 WZW 1028,7 50 0,0
20.05.2018 23:00:00 11,9 4,8 13 7 18 10 W 1028,7 50 0,0
20.05.2018 22:00:00 11,9 3,9 13 7 18 10 W 1028,7 43 0,0
20.05.2018 21:00:00 11,9 4,8 13 7 18 10 W 1028,5 50 0,0
20.05.2018 20:00:00 12,7 4,6 13 7 23 12 W 1028,5 50 0,0
20.05.2018 19:00:00 13,6 3,9 16 8 26 14 W 1028,8 50 0,0
20.05.2018 18:00:00 14,4 3,2 18 10 26 14 W 1028,8 47 0,0
20.05.2018 17:00:00 14,7 3,2 16 9 26 14 W 1029,2 50 0,0
20.05.2018 16:00:00 15,3 2,1 20 11 26 14 WZW 1029,3 32 0,0
20.05.2018 15:00:00 16,2 2,9 19 10 25 13 WZW 1029,2 50 0,0
20.05.2018 14:00:00 16,0 3,7 16 9 22 12 WZW 1029,6 48 0,0
20.05.2018 13:00:00 15,9 3,3 14 8 18 10 WZW 1029,7 48 0,0
20.05.2018 12:00:00 16,0 4,1 12 7 16 9 WZW 1029,6 49 0,0
20.05.2018 11:00:00 16,4 7,9 10 5 14 8 WZW 1029,1 49 0,0
20.05.2018 10:00:00 16,0 7,7 8 5 13 7 W 1029,1 49 0,0
20.05.2018 09:00:00 14,8 5,6 7 4 10 6 NW 1028,8 50 0,0
20.05.2018 08:00:00 13,7 5,1 5 3 13 7 WNW 1028,5 50 0,0
20.05.2018 07:00:00 12,7 4,9 9 5 14 8 NW 1028,2 50 0,0
20.05.2018 06:00:00 11,3 3,6 12 6 16 8 WNW 1027,6 50 0,0
20.05.2018 05:00:00 9,3 3,5 11 6 16 9 W 1027,3 50 0,0
20.05.2018 04:00:00 9,3 3,7 13 7 17 9 W 1027,0 50 0,0
20.05.2018 03:00:00 9,5 3,0 11 6 17 9 W 1026,6 50 0,0
20.05.2018 02:00:00 9,2 3,8 12 6 15 8 W 1026,1 50 0,0
20.05.2018 01:00:00 9,3 4,3 12 6 14 8 W 1026,0 50 0,0
20.05.2018 00:00:00 9,1 3,5 10 5 11 6 W 1025,8 50 0,0
19.05.2018 23:00:00 8,9 5,1 9 5 11 6 WNW 1025,4 50 0,0
19.05.2018 22:00:00 9,1 5,1 9 5 11 6 WNW 1025,3 50 0,0
19.05.2018 21:00:00 10,6 6,0 10 5 13 7 WNW 1025,0 50 0,0
19.05.2018 20:00:00 13,7 -2,7 4 2 16 8 ONO 1024,6 50 0,0
19.05.2018 19:00:00 14,0 4,0 3 2 19 10 NNW 1024,6 50 0,0
19.05.2018 18:00:00 14,8 3,9 11 6 19 10 NW 1024,5 50 0,0
19.05.2018 17:00:00 14,9 3,7 9 5 17 9 ZW 1024,5 50 0,0
19.05.2018 16:00:00 15,3 3,7 8 5 17 9 WZW 1024,3 42 0,0
19.05.2018 15:00:00 15,0 3,2 9 5 21 12 WZW 1024,1 50 0,0
19.05.2018 14:00:00 15,2 2,0 16 9 25 13 NNW 1024,1 38 0,0
19.05.2018 13:00:00 14,5 4,5 18 10 33 18 NNW 1024,0 41 0,0
19.05.2018 12:00:00 14,1 5,2 16 9 34 18 N 1023,8 45 0,0
19.05.2018 11:00:00 13,3 5,7 25 13 37 20 NNW 1023,5 49 0,0
19.05.2018 10:00:00 12,3 5,2 24 13 41 22 N 1023,2 50 0,0
19.05.2018 09:00:00 11,9 5,1 25 13 41 22 N 1022,7 50 0,0
19.05.2018 08:00:00 11,2 6,1 23 13 36 20 N 1022,3 44 0,0
19.05.2018 07:00:00 10,7 6,1 20 11 34 18 N 1021,8 48 0,0
19.05.2018 06:00:00 10,1 5,1 23 13 33 18 N 1021,4 50 0,0
19.05.2018 05:00:00 9,4 5,2 23 12 31 17 NNW 1021,2 50 0,0
19.05.2018 04:00:00 8,6 5,0 19 10 29 15 N 1021,0 50 0,0
19.05.2018 03:00:00 9,1 2,0 19 10 29 15 N 1020,7 50 0,0
19.05.2018 02:00:00 8,8 -0,8 17 9 29 16 N 1020,6 50 0,0
19.05.2018 01:00:00 9,3 -2,0 21 11 29 16 NNO 1020,4 50 0,0
19.05.2018 00:00:00 8,5 -2,5 17 9 26 14 NNO 1020,4 50 0,0
18.05.2018 23:00:00 9,4 -2,2 17 9 28 15 NNO 1020,1 50 0,0
18.05.2018 22:00:00 9,8 -3,5 13 7 28 15 NNO 1020,0 50 0,0
18.05.2018 21:00:00 11,7 -2,9 16 9 27 15 NNO 1019,7 50 0,0
18.05.2018 20:00:00 11,0 4,7 16 9 32 17 N 1019,0 50 0,0
18.05.2018 19:00:00 11,2 4,4 19 11 37 20 N 1018,7 50 0,0
18.05.2018 18:00:00 13,7 3,2 21 12 38 21 N 1018,1 47 0,0
18.05.2018 17:00:00 12,8 4,2 26 14 45 25 N 1017,7 46 0,0
18.05.2018 16:00:00 12,7 4,1 29 16 45 25 N 1017,4 35 0,0
18.05.2018 15:00:00 13,3 4,4 29 15 45 24 N 1016,9 32 0,0
18.05.2018 14:00:00 13,8 5,4 28 15 46 25 N 1016,8 36 0,0
18.05.2018 13:00:00 13,8 5,9 32 17 46 25 NNW 1016,3 38 0,0
18.05.2018 12:00:00 12,8 5,9 26 14 41 22 N 1015,8 34 0,0
18.05.2018 11:00:00 12,6 6,2 28 15 42 23 N 1015,3 32 0,0
18.05.2018 10:00:00 12,2 6,3 27 14 42 23 N 1014,7 35 0,0
18.05.2018 09:00:00 11,7 6,0 26 14 40 22 N 1014,2 42 0,0
18.05.2018 08:00:00 11,5 6,4 22 12 39 21 N 1013,8 44 0,0
18.05.2018 07:00:00 11,6 3,9 27 14 42 23 N 1013,3 47 0,0
18.05.2018 06:00:00 10,6 4,3 27 15 42 23 N 1013,3 45 0,0
18.05.2018 05:00:00 9,8 4,0 27 15 43 23 N 1013,1 50 0,0
18.05.2018 04:00:00 9,6 3,8 30 16 43 23 N 1013,0 50 0,0
18.05.2018 03:00:00 9,5 4,1 29 16 42 23 N 1013,0 50 0,0
18.05.2018 02:00:00 9,2 5,2 22 12 36 19 N 1012,9 50 0,0
18.05.2018 01:00:00 9,4 5,6 21 12 36 19 N 1013,0 50 0,0
18.05.2018 00:00:00 9,4 5,8 22 12 37 20 N 1013,1 50 0,0
17.05.2018 23:00:00 9,6 6,0 24 13 37 20 N 1012,9 50 0,0
17.05.2018 22:00:00 10,5 6,8 22 12 33 18 N 1013,0 50 0,0
17.05.2018 21:00:00 11,2 8,9 14 8 29 16 N 1012,7 35 0,0
17.05.2018 20:00:00 12,0 8,8 20 11 32 18 N 1012,4 37 0,0
17.05.2018 19:00:00 12,1 8,6 21 12 35 19 N 1012,2 35 0,0
17.05.2018 18:00:00 12,5 8,6 23 12 - - N 1011,9 30 0,0
17.05.2018 17:00:00 12,5 8,2 - - - - - 1011,8 - 0,0
17.05.2018 16:00:00 14,4 9,0 - - - - - 1011,9 - 0,0
17.05.2018 15:00:00 14,5 9,1 - - - - - 1012,1 - 0,0
17.05.2018 14:00:00 14,7 9,3 - - - - - 1012,3 - 0,0
17.05.2018 13:00:00 14,6 9,8 - - - - - 1012,5 - 0,0
17.05.2018 12:00:00 15,8 10,6 - - - - - 1012,2 - 0,0
17.05.2018 11:00:00 15,6 11,0 - - - - - 1012,0 - 0,0
17.05.2018 10:00:00 17,3 11,1 13 7 27 15 NNW 1011,6 37 0,0
17.05.2018 09:00:00 17,3 9,0 17 9 27 15 NO 1011,7 44 0,0
17.05.2018 08:00:00 17,4 9,8 16 9 27 15 NO 1011,6 37 0,0
17.05.2018 07:00:00 15,2 10,0 13 7 29 16 NO 1011,6 37 0,0
17.05.2018 06:00:00 12,7 11,8 14 8 29 16 NNO 1011,5 5 0,0
17.05.2018 05:00:00 11,5 10,9 8 4 19 11 NNO 1011,4 4,6 0,0
17.05.2018 04:00:00 11,3 10,4 13 7 22 12 O 1011,7 6 0,0
17.05.2018 03:00:00 11,8 9,4 14 7 22 12 ONO 1012,1 26 0,0
17.05.2018 02:00:00 13,9 8,9 16 9 22 12 NNO 1012,3 50 0,0
17.05.2018 01:00:00 13,7 8,7 15 8 22 12 N 1012,5 50 0,0
17.05.2018 00:00:00 12,7 9,5 15 8 20 11 N 1012,9 50 0,0
16.05.2018 23:00:00 12,9 8,2 16 8 17 9 NNW 1013,0 50 0,0
16.05.2018 22:00:00 13,0 10,0 11 6 16 8 NNW 1012,8 44 0,0
16.05.2018 21:00:00 12,8 9,6 11 6 14 7 WNW 1012,9 50 0,0
16.05.2018 20:00:00 14,6 9,4 10 5 14 7 W 1012,7 50 0,0
16.05.2018 19:00:00 15,1 11,3 7 4 17 9 ZW 1013,1 47 0,0
16.05.2018 18:00:00 15,6 11,4 10 5 19 10 ZW 1013,2 43 0,0
16.05.2018 17:00:00 16,4 11,5 12 6 22 12 ZW 1013,5 45 0,0
16.05.2018 16:00:00 17,9 10,3 8 4 22 12 ZW 1013,5 43 0,0
16.05.2018 15:00:00 20,3 8,6 9 5 16 9 Z 1013,4 41 0,0
16.05.2018 14:00:00 18,6 9,9 7 4 16 9 NW 1013,5 44 0,0
16.05.2018 13:00:00 17,9 10,3 11 6 16 9 NW 1013,6 36 0,0
16.05.2018 12:00:00 17,4 9,8 11 6 14 8 NW 1013,8 40 0,0
16.05.2018 11:00:00 17,5 10,1 9 5 14 8 WNW 1013,8 40 0,0
16.05.2018 10:00:00 17,0 9,9 6 3 13 7 Z 1014,1 41 0,0
16.05.2018 09:00:00 15,6 8,8 8 4 16 9 ONO 1014,0 48 0,0
16.05.2018 08:00:00 14,0 8,6 7 4 16 9 OZO 1014,0 50 0,0
16.05.2018 07:00:00 - - - - 16 9 - - - -
16.05.2018 06:00:00 - - - - 28 15 - - - -
16.05.2018 05:00:00 - - - - 28 15 - - - -
16.05.2018 04:00:00 - - - - 25 13 - - - -
16.05.2018 03:00:00 13,3 6,9 14 8 20 11 N 1014,4 50 0,0
16.05.2018 02:00:00 12,7 9,3 14 7 18 10 NNW 1014,8 38 0,0
16.05.2018 01:00:00 13,5 7,0 12 6 17 9 N 1015,1 45 0,0
16.05.2018 00:00:00 12,3 6,3 5 3 17 9 N 1015,8 50 0,0
15.05.2018 23:00:00 12,6 7,9 6 3 15 8 NNO 1016,0 50 0,0
15.05.2018 22:00:00 12,5 9,0 10 6 15 8 OZO 1016,0 50 0,0
15.05.2018 21:00:00 15,6 9,5 8 4 19 10 NNO 1015,8 50 0,0
15.05.2018 20:00:00 16,5 10,1 10 5 25 13 NNW 1015,7 48 0,0
15.05.2018 19:00:00 20,1 6,4 16 9 25 13 ONO 1015,8 50 0,0
15.05.2018 18:00:00 20,7 7,7 16 8 27 15 ONO 1016,3 45 0,0

tt = temperatuur
td = dauwpunt
ff = windsnelheid
fx = windstoten
dd = windrichting
ppp = luchtdruk
vv = zicht
rr = neerslag

Weerstations in de omgeving